Date_and_time,latitude,longitude,wind_speed,RelWindDirFrom,WindDirFrom,air_pressure,air_temperature,relative_humidity,Temp,platform_speed_wrt_ground,air_pressure_at_mean_sea_level,platform_orientation
2019-09-17 23:50,51.639325,-96.80277,11.6,16.9,153,976.70,27.4,55,17.93,0.0,1001.82,185.8
2019-09-18 00:00,51.639325,-96.8027683333333,11.1,17.2,151,976.65,26.6,57,18.35,0.0,1001.80,177.5
2019-09-18 00:10,51.639325,-96.8027666666667,10.3,16.4,150,976.66,26.0,58,18.71,0.0,1001.82,177.5
2019-09-18 00:20,51.639325,-96.8027683333333,9.9,14.3,151,976.72,25.8,59,18.96,0.0,1001.79,177.5
2019-09-18 00:30,51.639325,-96.8027666666667,9.7,14.5,153,976.73,25.5,60,19.08,0.0,1001.68,177.5
2019-09-18 00:40,51.6393266666667,-96.8027666666667,10.1,14.5,161,976.88,25.2,61,19.16,0.0,1001.87,177.5
2019-09-18 00:50,51.6393266666667,-96.8027666666667,9.3,12.8,162,976.94,24.7,63,19.04,0.0,1001.98,177.5
2019-09-18 01:00,51.6393266666667,-96.8027666666667,9.9,12.6,163,976.99,24.4,64,18.74,0.0,1002.05,186.9
2019-09-18 01:10,51.6393266666667,-96.802765,9.0,12.6,161,976.88,24.3,65,18.65,0.0,1001.97,186.9
2019-09-18 01:20,51.6393266666667,-96.8027633333333,10.2,14.7,157,976.85,23.9,66,18.51,0.0,1001.98,186.9
2019-09-18 01:30,51.6393183333333,-96.8027516666667,10.8,16.5,156,976.83,23.9,67,18.40,0.0,1001.98,186.9
2019-09-18 01:40,51.639335,-96.8027683333333,9.9,15.4,154,976.86,23.6,68,18.34,0.0,1002.04,186.9
2019-09-18 01:50,51.63934,-96.80277,10.9,16.4,154,977.02,23.5,69,18.24,0.0,1002.24,186.9
2019-09-18 02:00,51.6393316666667,-96.8027616666667,12.1,17.2,154,977.05,23.2,70,18.18,0.0,1002.31,0.0
2019-09-18 02:10,51.6393416666667,-96.8027633333333,10.1,15.8,153,977.09,22.9,72,18.07,0.0,1002.37,0.0
2019-09-18 02:20,51.6393416666667,-96.8027583333333,8.5,13.6,148,977.07,22.5,75,18.33,0.0,1002.38,0.0
2019-09-18 02:30,51.63934,-96.802765,11.0,16.5,154,977.02,22.5,75,18.55,0.0,1002.34,0.0
2019-09-18 02:40,51.6393316666667,-96.802755,10.2,15.7,149,976.90,22.4,75,18.59,0.0,1002.24,0.0
2019-09-18 02:50,51.63933,-96.802755,10.1,14.7,146,976.88,22.2,77,18.67,0.0,1002.25,0.0
2019-09-18 03:00,51.639335,-96.8027583333333,9.4,14.1,146,976.89,22.0,78,18.67,0.0,1002.27,7.0
2019-09-18 03:10,51.6393383333333,-96.802755,8.7,12.8,147,976.88,21.8,79,18.63,0.0,1002.28,7.0
2019-09-18 03:20,51.6393366666667,-96.8027566666667,8.5,12.0,145,976.83,21.6,81,18.64,0.0,1002.24,7.0
2019-09-18 03:30,51.6393366666667,-96.8027566666667,7.7,12.6,147,976.69,21.4,82,18.64,0.0,1002.12,7.0
2019-09-18 03:40,51.6393366666667,-96.802755,6.9,10.5,147,976.70,21.3,83,18.64,0.0,1002.14,7.0
2019-09-18 03:50,51.6393366666667,-96.802755,6.9,9.6,146,976.67,21.2,84,18.63,0.0,1002.13,7.0
2019-09-18 04:00,51.639335,-96.8027566666667,6.4,8.8,144,976.59,21.0,85,18.63,0.0,1002.06,46.8
2019-09-18 04:10,51.63933,-96.8027533333333,6.2,8.7,130,976.43,20.4,88,18.58,0.0,1001.95,46.8
2019-09-18 04:20,51.6393383333333,-96.8027583333333,5.5,7.2,120,976.38,19.4,94,18.41,0.0,1001.93,46.8
2019-09-18 04:30,51.6393366666667,-96.8027733333333,4.4,5.8,101,976.28,18.9,98,18.25,0.0,1001.86,46.8
2019-09-18 04:40,51.6393283333333,-96.802745,3.6,5.3,90,976.12,18.8,99,18.15,0.0,1001.71,46.8
2019-09-18 04:50,51.639335,-96.8027533333333,3.5,4.7,101,976.12,18.9,99,18.09,0.0,1001.72,46.8
2019-09-18 05:00,51.639335,-96.8027533333333,4.7,5.6,104,975.91,18.9,99,17.88,0.0,1001.50,90.0
2019-09-18 05:10,51.639335,-96.8027566666667,5.2,6.2,104,975.89,18.8,99,17.75,0.0,1001.49,90.0
2019-09-18 05:20,51.6393266666667,-96.8027816666667,5.3,5.8,104,975.79,18.6,100,17.70,0.0,1001.41,90.0
2019-09-18 05:30,51.6393333333333,-96.802765,5.4,6.0,112,975.68,18.4,100,17.65,0.0,1001.31,90.0
2019-09-18 05:40,51.639365,-96.8027816666667,5.1,5.7,101,975.51,18.4,100,17.62,0.0,1001.15,90.0
2019-09-18 05:50,51.63934,-96.802765,6.2,7.3,115,975.40,18.4,100,17.60,0.0,1001.04,90.0
2019-09-18 06:00,51.6393433333333,-96.8027666666667,6.4,7.1,114,975.30,18.5,100,17.59,0.0,1000.96,360.0
2019-09-18 06:10,51.63934,-96.8027616666667,4.6,5.6,106,975.18,18.3,100,17.58,0.0,1000.88,360.0
2019-09-18 06:20,51.63934,-96.8027633333333,4.8,5.6,114,975.11,18.1,100,17.57,0.0,1000.85,360.0
2019-09-18 06:30,51.63934,-96.8027633333333,5.9,7.4,122,974.98,18.3,100,17.56,0.0,1000.71,360.0
2019-09-18 06:40,51.6393383333333,-96.8027633333333,5.1,6.6,117,974.86,18.4,100,17.56,0.0,1000.58,360.0
2019-09-18 06:50,51.6393383333333,-96.8027633333333,4.7,6.2,120,974.77,18.4,100,17.53,0.0,1000.49,360.0
2019-09-18 07:00,51.6393366666667,-96.8027616666667,4.8,6.5,110,974.55,18.3,100,17.53,0.0,1000.27,270.0
2019-09-18 07:10,51.6393366666667,-96.80276,5.1,7.9,112,974.38,18.2,100,17.55,0.0,1000.11,270.0
2019-09-18 07:20,51.63934,-96.8027566666667,4.6,7.2,107,974.27,18.1,100,17.63,0.0,1000.00,270.0
2019-09-18 07:30,51.63933,-96.8027483333333,3.7,5.6,81,974.16,17.9,100,17.90,0.0,999.90,270.0
2019-09-18 07:40,51.63933,-96.802755,4.2,5.4,71,974.07,17.9,100,18.00,0.0,999.81,270.0
2019-09-18 07:50,51.6393316666667,-96.8027583333333,4.2,6.1,63,973.96,18.0,100,17.99,0.0,999.69,270.0
2019-09-18 08:00,51.6393316666667,-96.8027566666667,4.0,5.6,66,973.82,18.2,100,17.90,0.0,999.54,270.0
2019-09-18 08:10,51.6393333333333,-96.802755,3.9,5.2,87,973.78,18.4,100,17.77,0.0,999.51,270.0
2019-09-18 08:20,51.6393333333333,-96.8027566666667,5.0,6.6,89,973.53,18.3,100,17.70,0.0,999.25,270.0
2019-09-18 08:30,51.6393333333333,-96.802755,6.5,7.7,102,973.31,18.3,100,17.64,0.0,999.01,270.0
2019-09-18 08:40,51.6393333333333,-96.8027533333333,4.8,6.1,97,973.36,18.2,100,17.60,0.0,999.07,270.0
2019-09-18 08:50,51.639335,-96.8027533333333,5.4,6.9,105,973.31,18.1,100,17.57,0.0,999.03,270.0
2019-09-18 09:00,51.639335,-96.802755,7.2,8.6,105,973.04,18.2,100,17.57,0.0,998.75,360.0
2019-09-18 09:10,51.639335,-96.8027533333333,6.6,8.0,111,973.04,18.3,100,17.60,0.0,998.75,360.0
2019-09-18 09:20,51.639335,-96.8027533333333,5.3,7.9,92,972.95,18.1,100,17.62,0.0,998.68,360.0
2019-09-18 09:30,51.639335,-96.802755,4.8,5.9,84,972.82,17.9,100,17.63,0.0,998.55,360.0
2019-09-18 09:40,51.639335,-96.802755,6.0,8.0,103,972.68,18.0,100,17.63,0.0,998.40,360.0
2019-09-18 09:50,51.6393366666667,-96.802755,6.5,8.6,100,972.42,18.1,100,17.63,0.0,998.12,360.0
2019-09-18 10:00,51.6393366666667,-96.8027566666667,4.8,7.1,86,972.33,18.1,100,17.63,0.0,998.02,90.0
2019-09-18 10:10,51.6393366666667,-96.8027566666667,2.9,4.3,42,972.17,18.0,100,17.64,0.0,997.87,90.0
2019-09-18 10:20,51.6393366666667,-96.8027566666667,2.6,4.3,46,972.40,18.0,100,17.65,0.0,998.09,90.0
2019-09-18 10:30,51.639335,-96.8027566666667,4.0,5.8,89,972.56,18.1,100,17.61,0.0,998.26,90.0
2019-09-18 10:40,51.639335,-96.8027683333333,7.5,10.4,103,972.19,18.1,100,17.56,0.0,997.88,90.0
2019-09-18 10:50,51.6393316666667,-96.802765,7.7,9.8,94,971.90,18.4,100,17.53,0.0,997.57,90.0
2019-09-18 11:00,51.6393316666667,-96.802765,8.2,9.6,108,971.88,18.5,100,17.49,0.0,997.55,270.0
2019-09-18 11:10,51.6393333333333,-96.802765,7.1,9.1,111,971.79,18.3,100,17.47,0.0,997.46,270.0
2019-09-18 11:20,51.639345,-96.8027533333333,8.9,11.1,124,971.73,18.1,100,17.49,0.0,997.42,270.0
2019-09-18 11:30,51.63934,-96.8027683333333,10.1,11.5,126,971.75,18.2,100,17.50,0.0,997.43,270.0
2019-09-18 11:40,51.6386483333333,-96.802545,10.2,12.1,127,971.77,18.3,100,17.52,0.3,997.45,270.0
2019-09-18 11:50,51.6444083333333,-96.7812166666667,15.2,18.9,113,971.44,18.5,100,17.52,5.2,997.10,270.0
2019-09-18 12:00,51.670545,-96.7766183333333,10.8,18.5,84,971.28,18.1,100,16.84,9.5,996.96,27.4
2019-09-18 12:10,51.6996916666667,-96.78573,8.4,10.5,66,971.11,18.4,100,16.58,10.7,996.77,27.4
2019-09-18 12:20,51.7125883333333,-96.7930133333333,6.7,12.4,105,971.05,19.1,100,16.84,4.9,996.67,27.4
2019-09-18 12:30,51.7157133333333,-96.7959483333333,9.0,11.2,141,971.05,19.7,100,17.00,1.3,996.65,27.4
2019-09-18 12:40,51.73237,-96.8145333333333,0.3,5.1,135,971.20,19.8,99,17.00,7.3,996.78,27.4
2019-09-18 12:50,51.746555,-96.8288383333333,3.3,6.5,279,971.28,18.1,100,16.98,6.0,996.94,27.4
2019-09-18 13:00,51.7519966666667,-96.8340366666667,2.3,3.5,160,971.27,17.6,100,16.98,2.3,996.95,350.3
2019-09-18 13:10,51.7571166666667,-96.8419916666667,0.6,2.2,315,971.45,17.9,101,17.02,2.6,997.14,350.3
2019-09-18 13:20,51.762415,-96.8504316666667,0.5,2.0,334,971.55,18.1,101,17.23,2.7,997.23,350.3
2019-09-18 13:30,51.77438,-96.86228,4.2,7.1,330,971.65,18.2,101,16.99,5.1,997.31,350.3
2019-09-18 13:40,51.7744283333333,-96.8629,2.6,4.5,9,971.63,18.2,101,16.71,0.1,997.29,350.3
2019-09-18 13:50,51.774425,-96.8629483333333,4.1,5.0,46,971.53,18.1,101,16.67,0.0,997.21,350.3
2019-09-18 14:00,51.7744333333333,-96.8628966666667,4.0,5.0,44,971.71,17.9,101,16.64,0.0,997.39,344.6
2019-09-18 14:10,51.774445,-96.863055,6.4,8.2,66,971.48,17.7,101,16.61,0.0,997.14,344.6
2019-09-18 14:20,51.7814166666667,-96.8660166666667,8.1,11.8,68,971.11,18.7,101,16.58,2.6,996.69,344.6
2019-09-18 14:30,51.8086833333333,-96.88385,11.2,12.1,25,970.94,18.6,101,16.69,10.6,996.51,344.6
2019-09-18 14:40,51.8351216666667,-96.9057483333333,11.3,13.3,20,970.86,18.5,101,16.84,10.7,996.51,344.6
2019-09-18 14:50,51.8623016666667,-96.925985,11.5,13.6,27,970.64,18.7,101,16.75,10.8,996.29,344.6
2019-09-18 15:00,51.8891533333333,-96.9474316666667,10.2,11.6,12,970.66,19.1,101,16.68,10.8,996.28,334.3
2019-09-18 15:10,51.9159033333333,-96.9687283333333,9.0,10.8,19,970.54,19.0,100,16.53,10.7,996.16,334.3
2019-09-18 15:20,51.9426116666667,-96.9904483333333,9.5,11.2,22,970.29,18.4,101,16.50,10.8,995.92,334.3
2019-09-18 15:30,51.9696833333333,-97.01113,9.0,11.2,25,970.14,18.3,101,16.54,10.8,995.77,334.3
2019-09-18 15:40,51.9967633333333,-97.032025,8.1,9.9,29,970.09,18.2,101,16.56,10.8,995.73,334.3
2019-09-18 15:50,52.0236,-97.0502433333333,7.3,9.5,39,970.13,18.3,101,16.47,10.5,995.78,334.3
2019-09-18 16:00,52.0428216666667,-97.065705,4.9,8.6,77,970.20,18.4,101,16.42,7.7,995.85,333.9
2019-09-18 16:10,52.0650166666667,-97.08241,4.8,10.1,55,970.14,18.6,101,16.45,8.8,995.74,333.9
2019-09-18 16:20,52.0905033333333,-97.1018966666667,4.0,6.7,22,970.54,18.4,101,16.48,10.1,996.16,333.9
2019-09-18 16:30,52.0971266666667,-97.1057516666667,4.6,6.7,136,971.02,19.3,97,16.50,2.5,996.61,333.9
2019-09-18 16:40,52.102935,-97.1126166666667,4.1,5.6,169,971.35,19.1,100,16.52,2.6,996.96,333.9
2019-09-18 16:50,52.1087166666667,-97.11914,2.6,4.1,231,971.61,18.1,100,16.52,2.5,997.24,333.9
2019-09-18 17:00,52.1144083333333,-97.12646,3.2,6.1,243,971.72,17.9,101,16.48,2.6,997.37,334.6
2019-09-18 17:10,52.1208116666667,-97.1286283333333,6.5,16.4,271,971.76,18.1,101,16.48,2.4,997.43,334.6
2019-09-18 17:20,52.1206466666667,-97.1287133333333,11.8,14.8,281,971.97,18.0,101,16.49,0.1,997.65,334.6
2019-09-18 17:30,52.1205433333333,-97.1289516666667,10.5,12.9,311,972.00,17.8,101,16.49,0.1,997.70,334.6
2019-09-18 17:40,52.140505,-97.1427133333333,16.1,20.3,330,971.44,17.7,101,16.49,7.8,997.13,334.6
2019-09-18 17:50,52.1668783333333,-97.1637433333333,21.2,23.0,337,971.00,17.8,102,16.40,10.6,996.66,334.6
2019-09-18 18:00,52.1938066666667,-97.1830016666667,16.7,21.9,352,971.11,18.1,102,16.48,10.6,996.76,334.7
2019-09-18 18:10,52.2220783333333,-97.1885583333333,14.5,16.5,355,971.74,18.0,102,16.46,10.3,997.42,334.7
2019-09-18 18:20,52.2364333333333,-97.190725,10.0,16.6,303,972.87,18.1,102,16.60,5.2,998.53,334.7
2019-09-18 18:30,52.2414983333333,-97.1901633333333,19.4,27.7,277,973.73,17.4,102,16.71,1.8,999.45,334.7
2019-09-18 18:40,52.2471116666667,-97.1882866666667,23.2,31.4,296,973.19,17.3,100,16.58,2.1,998.94,334.7
2019-09-18 18:50,52.2522283333333,-97.1890566666667,27.1,34.1,316,972.31,17.2,100,16.51,1.8,998.06,334.7
2019-09-18 19:00,52.2650766666667,-97.1919866666667,28.7,35.6,324,971.73,17.0,100,16.44,4.7,997.47,340.8
2019-09-18 19:10,52.26612,-97.191465,21.8,27.7,332,972.08,17.0,100,16.32,0.4,997.83,340.8
2019-09-18 19:20,52.2662016666667,-97.1913233333333,18.9,23.0,325,972.27,17.0,100,16.28,0.0,998.03,340.8
2019-09-18 19:30,52.2661066666667,-97.19155,19.2,24.1,319,972.28,17.2,100,16.27,0.1,998.04,340.8
2019-09-18 19:40,52.2661866666667,-97.19137,17.3,24.0,316,972.53,16.9,100,16.25,0.0,998.31,340.8
2019-09-18 19:50,52.2712566666667,-97.19214,14.5,25.7,319,973.02,16.6,100,16.23,1.8,998.81,340.8
2019-09-18 20:00,52.3000783333333,-97.192775,24.8,29.7,348,971.77,16.5,100,16.13,10.4,997.53,347.7
2019-09-18 20:10,52.3288283333333,-97.191845,24.2,28.1,1,971.82,16.4,100,16.17,10.4,997.58,347.7
2019-09-18 20:20,52.3546783333333,-97.2018116666667,23.8,28.7,2,971.58,16.2,100,16.22,9.6,997.37,347.7
2019-09-18 20:30,52.3743566666667,-97.2359966666667,26.2,30.2,354,971.17,16.2,100,16.21,10.3,996.96,347.7
2019-09-18 20:40,52.3944916666667,-97.2693916666667,26.4,30.5,0,970.67,16.3,100,16.17,10.3,996.45,347.7
2019-09-18 20:50,52.4082183333333,-97.293355,24.3,31.2,11,970.39,16.5,100,16.17,7.2,996.16,347.7
2019-09-18 21:00,52.4118466666667,-97.301785,19.9,23.7,29,971.04,16.6,100,16.21,2.3,996.82,341.6
2019-09-18 21:10,52.4163516666667,-97.307255,20.2,22.2,25,970.91,16.6,100,16.23,2.0,996.68,341.6
2019-09-18 21:20,52.4206016666667,-97.31485,19.8,22.9,15,970.59,16.8,100,16.24,2.3,996.35,341.6
2019-09-18 21:30,52.4264016666667,-97.324465,16.4,24.0,356,970.83,16.9,100,16.24,3.0,996.60,341.6
2019-09-18 21:40,52.433305,-97.337205,17.8,25.2,246,973.39,16.6,100,16.24,3.7,999.25,341.6
2019-09-18 21:50,52.43329,-97.337125,17.5,21.1,256,973.81,16.4,100,16.27,0.0,999.69,341.6
2019-09-18 22:00,52.43322,-97.33695,18.2,22.7,260,973.92,16.5,100,16.28,0.0,999.81,332.3
2019-09-18 22:10,52.4332133333333,-97.3368066666667,17.6,21.0,255,974.32,16.5,100,16.30,0.0,1000.23,332.3
2019-09-18 22:20,52.433125,-97.3362783333333,20.3,24.0,266,974.23,16.5,100,16.29,0.1,1000.14,332.3
2019-09-18 22:30,52.442505,-97.3419333333333,21.8,28.5,286,974.73,16.4,100,16.28,3.6,1000.65,332.3
2019-09-18 22:40,52.4692833333333,-97.36031,26.2,30.2,304,973.87,16.3,100,16.34,10.4,999.77,332.3
2019-09-18 22:50,52.49508,-97.3803783333333,29.2,33.1,309,973.66,16.2,100,16.43,10.3,999.55,332.3
2019-09-18 23:00,52.516855,-97.3995183333333,29.6,34.5,313,973.81,15.9,100,16.46,8.9,999.72,329.9
2019-09-18 23:10,52.5418533333333,-97.4197916666667,32.3,37.7,317,973.43,15.7,100,16.44,10.0,999.32,329.9
2019-09-18 23:20,52.5652716666667,-97.4378366666667,32.4,37.1,318,973.44,15.6,100,16.39,9.3,999.34,329.9
2019-09-18 23:30,52.5878316666667,-97.454455,30.4,35.8,320,973.91,15.6,100,16.30,8.9,999.84,329.9
